User: anonymous   Login
Location: Friaudour
(46.0460°N, 1.2873°E)
Time: 09:08:48
(UTC+00:00)
Language:

CZ-4C R/B - Orbit

View from above orbital plane
View from above orbital plane
View from above satellite
View from above satellite

Ground track
Ground track

The orbit data is extracted from the following two-line orbital elements,

1 39211U 13037D   20269.88353290 +.00000194 +00000-0 +16234-4 0  9991
2 39211 097.9866 042.8626 0122763 225.9328 133.1739 15.05524521394253
Epoch (UTC): 25 September 2020 21:12:17
Eccentricity: 0.0122763
inclination: 97.9866°
perigee height: 465 km
apogee height: 635 km
right ascension of ascending node: 42.8626°
argument of perigee: 225.9328°
revolutions per day: 15.05524521
mean anomaly at epoch: 133.1739°
orbit number at epoch: 39425

The dashed part of the orbit path shows where the satellite is in the earth's shadow,  

DLR